Find Starlink 32889

NORAD ID: 62961 Int'l Des: 2025-029 Owner: SPXS Country: US Constellation: starlink operational
LEOCIRCULAR

Current View

Loading 3D Globe...

About Starlink 32889

Starlink 32889 (NORAD 62961) is a starlink constellation satellite (v2 mini) launched Feb 11, 2025 by SPXS of US. It operates in LEO, CIRCULAR orbit with a mass of 730.00 kg.

About Starlink 32889

Description loading...

Upcoming Passes

Passes for default location (London). Set your location on the main map for personalized predictions.

Altitude History

Loading altitude history...

Two-Line Element Set

1 62961U 25029P 26170.84412021 .00015782 00000-0 54370-3 0 9995
2 62961 53.1593 118.2627 0001485 95.4187 264.6983 15.30209227 76957
Epoch: Jun 19, 2026 • Age: 27 hours

Current Status

Altitude 475.1 km
Velocity 7.63 km/s
Sub-Earth Point 12.15°N, 131.43°W
Launch Date Feb 11, 2025
Age 1.3 years
Type internet

Technical Details

Classification Payload
Mass 730.00 kg
Dry Mass 700.00 kg
Total Mass 730.00 kg
Length 0.30 m
Diameter 4.10 m
Span 29.00 m
Shape Box + pan
Manufacturer SPXS
Bus Type Starlink V2M
Phase Status In Orbit
Owner/State SPXS/US

Most Searched